Location: アルンシュタイン
(50.0000°N, 10.0000°E)
Time: 06:38:22
(UTC+01:00)

Envisat - Pass Details

Date: 28 October 2021
Orbit: 764 x 766 km, 98.2° (Epoch: 04 December)

Event Time Altitude Azimuth Distance (km) Brightness Sun altitude
Rises 07:06:53 0° 10° (N) 3,246 6.3 -9.6°
Reaches altitude 10° 07:09:14 10° 6° (N) 2,315 5.5 -9.2°
Maximum altitude 07:14:11 54° 291° (WNW) 926 3.1 -8.4°
Drops below altitude 10° 07:19:07 10° 215° (SW) 2,298 5.3 -7.6°
Sets 07:21:27 0° 210° (SSW) 3,219 6.0 -7.3°
